Memphis, TN

9:56 PM CDT on July 24, 2016 (GMT -0500)
Memphis International

Weather History for KMEM - May, 2012

Change the Weather History Date:

Tuesday, May 15, 2012

  Actual Average Record
Temperature  
Mean Temperature 72 °F 71 °F  
Max Temperature 82 °F 81 °F 91 °F (1962)
Min Temperature 62 °F 62 °F 46 °F (1959)
Degree Days  
Heating Degree Days 0 1  
Month to date heating degree days 0 16  
Since 1 July heating degree days 2171 2961  
Cooling Degree Days 7 7  
Month to date cooling degree days 141 82  
Year to date cooling degree days 363 177  
Growing Degree Days 22 (Base 50)    
Moisture  
Dew Point 57 °F    
Average Humidity 65    
Maximum Humidity 90    
Minimum Humidity 39    
Precipitation  
Precipitation 0.00 in 0.17 in 1.71 in (1974)
Month to date precipitation 1.08 2.74  
Year to date precipitation 11.23 21.77  
Snow  
Snow 0.00 in 0.00 in - ()
Month to date snowfall 0.0 0.0  
Since 1 July snowfall 1.4 3.8  
Snow Depth 0.00 in    
Sea Level Pressure  
Sea Level Pressure 30.01 in    
Wind  
Wind Speed 2 mph (West)    
Max Wind Speed 10 mph    
Max Gust Speed 18 mph    
Visibility 10 miles    
Events      
T = Trace of Precipitation, MM = Missing Value Source: NWS Daily Summary

Daily Weather History Graph

Daily Weather History Graph

Search for Another Location

Airport or City:

Trip Planner

Search our weather history database for the weather conditions in past years. The results will help you decide how hot, cold, wet, or windy it might be!

Date:

Astronomy

May. 15, 2012 Rise Set
Actual Time 5:55 AM CDT 7:57 PM CDT
Civil Twilight 5:27 AM CDT 8:25 PM CDT
Nautical Twilight 4:53 AM CDT 8:59 PM CDT
Astronomical Twilight 4:16 AM CDT 9:36 PM CDT
Moon 2:47 AM CDT (5/15) 3:25 PM CDT (5/15)
Length of Visible Light 14h 57m
Length of Day
14h 01m
Waning Crescent, 23% of the Moon is Illuminated
May 15
Waning Crescent
May 20
New
May 28
First Quarter
Jun 4
Full
Jun 11
Last Quarter

Hourly Weather History & Observations

Time (CDT) Temp. Heat Index Dew Point Humidity Pressure Visibility Wind Dir Wind Speed Gust Speed Precip Events Conditions
12:54 AM 70.0 °F - 57.9 °F 65% 30.01 in 10.0 mi ESE 3.5 mph - N/A   Scattered Clouds
1:54 AM 66.0 °F - 57.9 °F 75% 30.01 in 10.0 mi Calm Calm - N/A   Scattered Clouds
2:54 AM 64.9 °F - 57.9 °F 78% 29.99 in 10.0 mi Calm Calm - N/A   Mostly Cloudy
3:54 AM 64.9 °F - 57.9 °F 78% 29.99 in 10.0 mi Calm Calm - N/A   Mostly Cloudy
4:54 AM 64.0 °F - 57.9 °F 80% 30.00 in 10.0 mi West 3.5 mph - N/A   Mostly Cloudy
5:49 AM 62.6 °F - 57.2 °F 82% 30.02 in 10.0 mi Calm Calm - N/A   Scattered Clouds
5:54 AM 62.6 °F - 57.2 °F 82% 30.01 in 10.0 mi Calm Calm - N/A   Scattered Clouds
6:54 AM 63.0 °F - 59.0 °F 87% 30.04 in 10.0 mi Calm Calm - N/A   Partly Cloudy
7:54 AM 70.0 °F - 59.0 °F 68% 30.04 in 10.0 mi Calm Calm - N/A   Partly Cloudy
8:54 AM 73.9 °F - 60.1 °F 62% 30.05 in 10.0 mi North 4.6 mph - N/A   Scattered Clouds
9:54 AM 75.9 °F - 59.0 °F 56% 30.06 in 10.0 mi Calm Calm - N/A   Scattered Clouds
10:54 AM 78.1 °F - 57.0 °F 48% 30.06 in 10.0 mi Variable 6.9 mph - N/A   Scattered Clouds
11:54 AM 79.0 °F - 55.0 °F 44% 30.04 in 10.0 mi East 3.5 mph - N/A   Mostly Cloudy
12:54 PM 81.0 °F 80.7 °F 55.0 °F 41% 30.04 in 10.0 mi ENE 8.1 mph - N/A   Mostly Cloudy
1:54 PM 82.0 °F 81.4 °F 55.0 °F 39% 30.02 in 10.0 mi NE 5.8 mph - N/A   Mostly Cloudy
2:54 PM 80.1 °F 79.9 °F 53.1 °F 39% 30.01 in 10.0 mi Calm Calm - N/A   Overcast
3:54 PM 80.1 °F 79.9 °F 53.1 °F 39% 29.99 in 10.0 mi Calm Calm - N/A   Overcast
4:54 PM 81.0 °F 80.5 °F 54.0 °F 39% 29.98 in 10.0 mi Calm Calm - N/A   Overcast
5:54 PM 80.1 °F 80.1 °F 55.0 °F 42% 29.98 in 10.0 mi WSW 4.6 mph - N/A   Mostly Cloudy
6:54 PM 78.1 °F - 55.0 °F 45% 29.98 in 10.0 mi WSW 6.9 mph - N/A   Overcast
7:54 PM 77.0 °F - 54.0 °F 45% 29.99 in 10.0 mi West 3.5 mph - N/A   Overcast
8:54 PM 73.9 °F - 55.9 °F 53% 29.99 in 10.0 mi Calm Calm - N/A   Scattered Clouds
9:54 PM 71.1 °F - 55.9 °F 59% 30.01 in 10.0 mi SW 3.5 mph - N/A   Scattered Clouds
10:54 PM 71.1 °F - 55.9 °F 59% 30.01 in 10.0 mi Calm Calm - N/A   Partly Cloudy
11:54 PM 68.0 °F - 55.9 °F 65% 30.02 in 10.0 mi Calm Calm - N/A   Partly Cloudy